[[{"header":{"parameterUnit":"m.s-1","parameterCategory":1,"la1":30.2991,"la2":30.254,"lo1":-89.0895,"lo2":-89.0444,"dy":0.0017,"dx":0.0017,"nx":28,"ny":28,"refTime":"2025-05-22T09:00:00:Z","depth":0,"parameterNumber":2,"parameterNumberName":"U-component_of_WINDS"},"data":[0,0,0,0,0,0,0,0,0,0,0,0,0,0,0,0,0,0,0,0,0,0,0,0,0,0,0,0,0,0,0,0,0,0,0,0,0,0,0,0,0,0,0,0,0,0,0,0,0,0,0,0,0,0,0,0,0,0,0.5926,0.5926,0,0.597,0.5971,0.5971,0.5984,0.5984,0.5984,0.5984,0.6028,0.6029,0.6031,0,0,0,0,0,0,0,0,0,0,0,0,0,0.5851,0.5853,0.5926,0.5926,0.5927,0.597,0.5971,0.5971,0.5984,0.5984,0.5984,0.5983,0.6028,0.6029,0.6031,0,0,0,0,0,0,0,0,0,0,0,0,0,0.5888,0.5853,0.5926,0.5939,0.594,0.597,0.5971,0.5971,0.5984,0.5984,0.5984,0.5983,0.6027,0.6029,0.6031,0.6051,0,0,0.6038,0.6038,0,0,0,0,0,0,0,0,0.5886,0.5891,0.5936,0.5938,0.594,0.5971,0.5961,0.5998,0.5984,0.5968,0.5983,0.5983,0.6009,0.6013,0.6022,0.6053,0.6055,0.6038,0.6039,0.604,0.6041,0,0,0,0,0,0,0,0.5884,0.5889,0.5943,0.5937,0.5939,0.5942,0.5947,0.5968,0.599,0.5969,0.597,0.5975,0.601,0.602,0.6023,0.6056,0.6038,0.604,0.6041,0.6042,0.6103,0.6104,0,0,0,0,0,0,0.5879,0.5887,0.5942,0.5945,0.5912,0.5943,0.5949,0.5961,0.599,0.5994,0.5975,0.5976,0.6016,0.6021,0.6025,0.6049,0.604,0.6042,0.6043,0.6103,0.6104,0.6104,0,0,0,0,0,0,0.5877,0.5884,0.594,0.5916,0.5924,0.5945,0.5959,0.5962,0.5972,0.5994,0.5998,0.5981,0.6016,0.6022,0.6044,0.605,0.6043,0.6045,0.6103,0.6103,0.6104,0.6097,0,0,0,0,0,0,0.5875,0.5883,0.5891,0.5916,0.5925,0.5959,0.596,0.5964,0.5976,0.5976,0.6001,0.6005,0.6017,0.6041,0.6046,0.6053,0.6046,0.6102,0.6103,0.6104,0.6097,0.6098,0.6098,0,0,0,0,0,0.5872,0.5888,0.5892,0.5898,0.5935,0.596,0.5964,0.5978,0.5976,0.5984,0.5998,0.6004,0.6049,0.6043,0.6049,0.6057,0.6102,0.6103,0.6104,0.6097,0.6098,0.6098,0,0,0,0,0,0,0.5863,0.5891,0.5896,0.592,0.5937,0.5962,0.5972,0.5978,0.5996,0.5996,0.6012,0.6017,0.6038,0.605,0.6043,0.6077,0.6075,0.6078,0.6068,0.6069,0.607,0.6066,0.6048,0,0,0,0,0,0.5864,0.5882,0.5905,0.5924,0.5932,0.5951,0.5962,0.5971,0.5989,0.5996,0.6012,0.603,0.6047,0.6059,0.6077,0.6099,0.6104,0.6107,0.6108,0.6108,0.6109,0.6121,0.6122,0.6107,0.6107,0.6107,0,0,0.5866,0.5883,0.5893,0.5923,0.5937,0.5954,0.5957,0.5975,0.5988,0.5999,0.6021,0.6033,0.6053,0.6075,0.6086,0.6086,0.6115,0.6109,0.6109,0.6111,0.6122,0.6123,0.6125,0.6107,0.6107,0.6107,0,0,0.5878,0.5893,0.591,0.5924,0.5946,0.5958,0.5962,0.5985,0.5993,0.6016,0.6024,0.6039,0.607,0.6084,0.6095,0.611,0.6116,0.6116,0.6118,0.6129,0.6131,0.6132,0.6137,0.6138,0.6117,0.6117,0.6117,0,0.5877,0.5904,0.5918,0.5935,0.5947,0.5958,0.5975,0.5988,0.6014,0.6022,0.6022,0.606,0.6074,0.6099,0.6103,0.6112,0.6116,0.6113,0.6129,0.6131,0.6132,0.6137,0.6138,0.6117,0.6117,0.6117,0.6117,0,0.5901,0.5919,0.593,0.5955,0.5968,0.5986,0.6002,0.6013,0.6021,0.6032,0.6054,0.6072,0.6093,0.6099,0.6107,0.6125,0.6124,0.6126,0.6125,0.6133,0.6138,0.614,0.6117,0.6117,0.6117,0.6117,0,0,0.5909,0.5941,0.5944,0.5955,0.5979,0.5994,0.6011,0.6031,0.604,0.6058,0.6072,0.6097,0.6099,0.6112,0.6121,0.6131,0.6141,0.6132,0.6132,0.6132,0.616,0.6158,0.616,0.6144,0.6145,0.6145,0.6159,0,0.5923,0.5954,0.5967,0.5992,0.6008,0.6018,0.6033,0.6049,0.606,0.6075,0.6088,0.6105,0.6107,0.6114,0.6124,0.6137,0.6146,0.6137,0.6157,0.6158,0.6151,0.6163,0.6161,0.6173,0.6161,0.6161,0.6161,0,0.5944,0.5961,0.5988,0.6009,0.6016,0.603,0.6049,0.6063,0.6081,0.6089,0.6102,0.611,0.6128,0.6126,0.615,0.6143,0.6152,0.6159,0.616,0.6162,0.616,0.6165,0.6177,0.6178,0.6164,0.6164,0.6164,0,0.5946,0.5976,0.5995,0.6004,0.603,0.6039,0.605,0.6067,0.6079,0.6095,0.6103,0.6121,0.6131,0.6145,0.6158,0.6155,0.618,0.6179,0.6186,0.6186,0.6191,0.619,0.6204,0.6197,0.6197,0.6197,0.6197,0,0.596,0.5976,0.5996,0.6008,0.6026,0.604,0.6057,0.6068,0.6084,0.6098,0.6107,0.612,0.6136,0.6151,0.6161,0.6179,0.6184,0.6189,0.6192,0.6188,0.6188,0.6194,0.6194,0.6198,0.6198,0.6198,0.6198,0,0.5965,0.5979,0.6001,0.6023,0.6029,0.6041,0.606,0.6071,0.6083,0.61,0.6105,0.6123,0.614,0.6154,0.6178,0.6184,0.6203,0.6206,0.6196,0.6198,0.6203,0.6202,0.6222,0.6225,0.6216,0.6216,0.6217,0,0.5973,0.5985,0.6008,0.6018,0.6029,0.6045,0.6056,0.607,0.6082,0.6103,0.6111,0.613,0.6145,0.6173,0.6187,0.6205,0.6208,0.6214,0.6211,0.6207,0.6207,0.6206,0.6207,0.6214,0.6214,0.6214,0.6214,0,0.5985,0.5991,0.6007,0.6026,0.6039,0.6054,0.6069,0.6077,0.6094,0.6106,0.6124,0.6136,0.6159,0.6177,0.6196,0.6206,0.6213,0.6215,0.6217,0.6213,0.6207,0.621,0.6197,0.6214,0.6214,0.6214,0.6214,0.6214,0.5991,0.6002,0.602,0.6037,0.605,0.6064,0.6076,0.6088,0.6104,0.6124,0.6131,0.6149,0.6166,0.6192,0.6203,0.6217,0.6218,0.6221,0.6222,0.6223,0.6222,0.6205,0.6221,0.6221,0.6221,0.6221,0.6221,0,0.6003,0.6015,0.6031,0.6051,0.6065,0.607,0.6087,0.6097,0.6113,0.6129,0.6143,0.6164,0.6181,0.6197,0.6214,0.6223,0.6226,0.6227,0.6226,0.6228,0.6221,0.6217,0.6224,0.6224,0.6224,0.6224,0.6224,0.6224,0.6011,0.6029,0.6038,0.6062,0.6074,0.6092,0.6101,0.6114,0.6126,0.6148,0.6162,0.6172,0.6188,0.6206,0.6222,0.6226,0.6232,0.6232,0.6237,0.6229,0.6229,0.6228,0.6225,0.6233,0.6233,0.6243,0.6243,0.6243]},{"header":{"parameterUnit":"m.s-1","parameterCategory":1,"la1":30.2991,"la2":30.254,"lo1":-89.0895,"lo2":-89.0444,"dy":0.0017,"dx":0.0017,"nx":28,"ny":28,"refTime":"2025-05-22T09:00:00:Z","depth":0,"parameterNumber":3,"parameterNumberName":"V-component_of_WINDS"},"data":[0,0,0,0,0,0,0,0,0,0,0,0,0,0,0,0,0,0,0,0,0,0,0,0,0,0,0,0,0,0,0,0,0,0,0,0,0,0,0,0,0,0,0,0,0,0,0,0,0,0,0,0,0,0,0,0,0,0,2.6282,2.6282,0,2.6314,2.6314,2.6315,2.6286,2.6285,2.6284,2.6283,2.6313,2.6315,2.6317,0,0,0,0,0,0,0,0,0,0,0,0,0,2.6194,2.6195,2.6282,2.6283,2.6283,2.6314,2.6314,2.6315,2.6287,2.6285,2.6284,2.6283,2.6312,2.6314,2.6317,0,0,0,0,0,0,0,0,0,0,0,0,0,2.6229,2.6196,2.6282,2.6273,2.6272,2.6314,2.6314,2.6315,2.6287,2.6285,2.6284,2.6282,2.6312,2.6314,2.6317,2.6369,0,0,2.6326,2.6327,0,0,0,0,0,0,0,0,2.6227,2.6233,2.6274,2.6273,2.6273,2.6295,2.6294,2.6333,2.6287,2.6281,2.6283,2.6281,2.6308,2.6311,2.6321,2.637,2.6371,2.6326,2.6327,2.6329,2.6329,0,0,0,0,0,0,0,2.6225,2.6231,2.6295,2.6274,2.6274,2.6266,2.6269,2.6301,2.6304,2.6282,2.628,2.6284,2.6307,2.6318,2.6321,2.6372,2.6326,2.6328,2.633,2.6331,2.6463,2.6465,0,0,0,0,0,0,2.6224,2.6229,2.6294,2.6296,2.6246,2.6269,2.6272,2.6289,2.6303,2.6304,2.6285,2.6283,2.6314,2.6318,2.6322,2.6382,2.6329,2.6331,2.6333,2.6461,2.6463,2.6465,0,0,0,0,0,0,2.6222,2.623,2.6292,2.6262,2.6269,2.6272,2.6291,2.6291,2.6301,2.6306,2.6306,2.6296,2.6313,2.6318,2.6357,2.6382,2.6332,2.6335,2.6459,2.6462,2.6464,2.6502,0,0,0,0,0,0,2.622,2.6229,2.625,2.6263,2.6271,2.6328,2.6293,2.6293,2.6307,2.6303,2.6316,2.6317,2.6312,2.6353,2.636,2.6385,2.6337,2.6456,2.646,2.6463,2.6499,2.6506,2.6512,0,0,0,0,0,2.6217,2.6259,2.6251,2.6259,2.6297,2.6329,2.6334,2.6329,2.6309,2.6329,2.6332,2.6316,2.6379,2.6357,2.6365,2.6391,2.6455,2.6459,2.6463,2.6496,2.6505,2.6512,0,0,0,0,0,0,2.6249,2.6261,2.6252,2.63,2.6314,2.6325,2.6349,2.6338,2.6357,2.6353,2.6345,2.6348,2.6389,2.6394,2.637,2.6441,2.6413,2.6419,2.6436,2.6444,2.6451,2.6448,2.634,0,0,0,0,0,2.6262,2.6288,2.6297,2.6338,2.6346,2.6347,2.6361,2.6355,2.6369,2.6374,2.638,2.6393,2.6416,2.6431,2.6452,2.65,2.6501,2.6522,2.6529,2.6534,2.6539,2.6563,2.6572,2.6479,2.6479,2.6479,0,0,2.6288,2.6298,2.6315,2.6345,2.6355,2.6381,2.6352,2.6381,2.64,2.6379,2.6415,2.642,2.6434,2.6477,2.6497,2.6483,2.6565,2.654,2.6544,2.6545,2.6568,2.6577,2.6585,2.6481,2.6481,2.6481,0,0,2.6349,2.636,2.6395,2.6406,2.6422,2.6422,2.6431,2.6443,2.6445,2.6482,2.6466,2.6488,2.6528,2.6538,2.6548,2.6612,2.6598,2.662,2.6654,2.6678,2.6685,2.6692,2.6713,2.6721,2.6624,2.6625,2.6625,0,2.638,2.642,2.6415,2.6445,2.6458,2.644,2.6475,2.6485,2.6507,2.6516,2.65,2.6548,2.6557,2.6601,2.6617,2.6627,2.6635,2.6617,2.6685,2.6691,2.6697,2.6717,2.6725,2.6627,2.6627,2.6626,2.6626,0,2.6455,2.6483,2.651,2.6531,2.6547,2.658,2.6578,2.6595,2.6588,2.6589,2.6626,2.6636,2.6657,2.6668,2.6662,2.6711,2.6702,2.6686,2.6658,2.6708,2.6727,2.6735,2.663,2.6629,2.6629,2.6628,0,0,2.6537,2.6556,2.6565,2.6574,2.659,2.6611,2.6642,2.6664,2.6677,2.6693,2.6717,2.6751,2.6736,2.6748,2.6742,2.6763,2.6811,2.6744,2.6744,2.6755,2.6865,2.6875,2.6885,2.6803,2.6804,2.6805,2.6863,0,2.6598,2.6652,2.6648,2.6699,2.6723,2.6707,2.6733,2.6745,2.6748,2.6768,2.677,2.6793,2.6772,2.6779,2.6799,2.6801,2.6833,2.6797,2.6824,2.6825,2.6819,2.6895,2.6906,2.696,2.687,2.6872,2.6872,0,2.6675,2.6694,2.6747,2.6758,2.6768,2.6793,2.6812,2.6832,2.6845,2.6844,2.6857,2.6848,2.6878,2.685,2.689,2.6866,2.6876,2.6879,2.6881,2.6882,2.685,2.6896,2.6977,2.6985,2.6884,2.6883,2.6882,0,2.6727,2.6766,2.6802,2.681,2.6825,2.6842,2.6848,2.686,2.6873,2.6889,2.6897,2.6917,2.6928,2.6943,2.6938,2.6919,2.6978,2.6951,2.6977,2.6978,2.6989,2.6988,2.7072,2.6999,2.6999,2.6999,2.6999,0,2.6794,2.6827,2.6825,2.6847,2.6883,2.6878,2.6913,2.6917,2.6927,2.6949,2.6937,2.6957,2.6951,2.6971,2.6968,2.7,2.7005,2.7005,2.7003,2.7005,2.7005,2.7011,2.7006,2.7001,2.7001,2.7,2.7,0,2.6858,2.6858,2.6896,2.6907,2.691,2.6936,2.6944,2.6965,2.6966,2.6993,2.6999,2.7001,2.7023,2.7021,2.7046,2.7044,2.7084,2.7079,2.7079,2.7078,2.7104,2.7101,2.7193,2.7204,2.7126,2.7126,2.7127,0,2.6899,2.6924,2.6938,2.6951,2.6959,2.6982,2.6995,2.6991,2.7005,2.7021,2.7039,2.7061,2.7077,2.7114,2.7117,2.7136,2.713,2.7161,2.7132,2.7133,2.7128,2.7126,2.7127,2.7166,2.7166,2.7167,2.7168,0,2.6973,2.6972,2.6992,2.7012,2.7028,2.7044,2.7058,2.707,2.7066,2.7083,2.7106,2.7119,2.7145,2.7166,2.7184,2.7189,2.7177,2.7177,2.7184,2.7185,2.7184,2.7183,2.7093,2.7174,2.7174,2.7173,2.7173,2.7173,2.7026,2.7046,2.7059,2.7081,2.7091,2.7104,2.7123,2.7127,2.7146,2.7167,2.7163,2.7189,2.72,2.7223,2.723,2.7249,2.7238,2.7248,2.7251,2.7253,2.7255,2.7182,2.7253,2.7253,2.7252,2.7252,2.7252,0,2.7097,2.7104,2.7125,2.7145,2.7162,2.7151,2.7165,2.718,2.7203,2.7215,2.7232,2.7257,2.7278,2.7282,2.7301,2.7315,2.731,2.732,2.7318,2.7319,2.7265,2.7256,2.7324,2.7324,2.7324,2.7324,2.7324,2.7324,2.7136,2.717,2.717,2.7208,2.7215,2.724,2.7249,2.7261,2.727,2.7299,2.7316,2.7319,2.7327,2.7347,2.7364,2.7365,2.7371,2.7383,2.7381,2.733,2.7323,2.7316,2.7308,2.7385,2.7385,2.7434,2.7434,2.7435]}]]